[Iaude] MPEC T239: 2023 TJ10 [a=1.10,e=0.28,i=23.3,H=24.4]
    mpec at marsden.cfa.harvard.edu 
    mpec at marsden.cfa.harvard.edu
       
    Sat Oct 14 03:59:45 EDT 2023
    
    
  
M.P.E.C. 2023-T239                             Issued 2023 October 14, 07:57 UT
     The Minor Planet Electronic Circulars contain information on unusual
         minor planets, routine data on comets and natural satellites,
         and occasional editorial announcements.  They are published
    on behalf of Division F of the International Astronomical Union by the
          Minor Planet Center, Smithsonian Astrophysical Observatory,
                          Cambridge, MA 02138, U.S.A.
			  
             Prepared using the Tamkin Foundation Computer Network
                              MPC at CFA.HARVARD.EDU
            URL https://www.minorplanetcenter.net/    ISSN 1523-6714
                                   2023 TJ10                                    
Observations:
     K23T10J 1C2023 10 06.42727 02 40 28.32 -19 08 09.2          21.3 GVET239G96
     K23T10J 1C2023 10 06.43198 02 40 25.03 -19 07 33.6          21.4 GVET239G96
     K23T10J* C2023 10 13.33928301 31 25.374-04 53 51.04         21.51GVET239V00
     K23T10J  C2023 10 13.34480301 31 22.436-04 53 12.37         21.25GVET239V00
     K23T10J  C2023 10 13.35030201 31 19.434-04 52 34.64         21.24GVET239V00
     K23T10J  C2023 10 13.35581801 31 16.439-04 51 55.94         21.03GVET239V00
     K23T10J  C2023 10 13.37759501 31 04.509-04 49 26.34         20.7 GVET239H01
     K23T10J  C2023 10 13.38122901 31 02.568-04 49 00.95         20.9 GVET239H01
     K23T10J  C2023 10 13.39590901 30 54.699-04 47 18.81         20.9 GVET239H01
     K23T10J  C2023 10 13.40053701 30 52.220-04 46 46.88         21.2 GVET239H01
     K23T10J KC2023 10 13.40345001 30 50.740-04 46 26.30               VET239I52
     K23T10J KC2023 10 13.40545 01 30 49.76 -04 46 11.7          20.6 RVET239291
     K23T10J KC2023 10 13.40834801 30 48.190-04 45 51.50         21.50GVET239I52
     K23T10J KC2023 10 13.40887 01 30 47.94 -04 45 48.0          20.9 RVET239291
     K23T10J KC2023 10 13.41228 01 30 46.09 -04 45 24.2                VET239291
     K23T10J KC2023 10 13.41326201 30 45.530-04 45 18.10               VET239I52
     K23T10J KC2023 10 13.41817101 30 42.910-04 44 43.00               VET239I52
     K23T10J KC2023 10 13.90574001 26 36.79 -03 49 07.2          21.1 GVET239598
     K23T10J KC2023 10 13.91016701 26 34.50 -03 48 37.6          21.2 GVET239598
     K23T10J KC2023 10 13.91467301 26 32.17 -03 48 06.8          21.2 GVET239598
     K23T10J  C2023 10 14.23526501 23 51.982-03 11 56.89         20.7 GVET239H01
     K23T10J  C2023 10 14.23931401 23 49.896-03 11 29.89         20.2 GVET239H01
     K23T10J  C2023 10 14.24950801 23 44.650-03 10 21.58         21.1 GVET239H01
     K23T10J  C2023 10 14.25569501 23 41.471-03 09 40.32         21.0 GVET239H01
Observer details:
291 LPL/Spacewatch II.  Observer T. H. Bressi.  1.8-m f/2.7 reflector + CCD.
598 Loiano.  Observer A. Carbognani.  1.52-m f/4.7 Reflector + CCD.
G96 Mt. Lemmon Survey.  Observer K. W. Wierzchos.  Measurers B. Gray, D.
    Rankin, F. C. Shelly.  1.5-m reflector + 10K CCD.
H01 Magdalena Ridge Observatory, Socorro.  Observers W. H. Ryan, E. V. Ryan.
    Measurer W. H. Ryan.  2.4-m f/8.9 Ritchey-Chretien + CCD.
I52 Steward Observatory, Mt. Lemmon Station.  Observer J. B. Fazekas.
    Measurers E. C. Beshore, D. Fay, J. B. Fazekas, D. C. Fuls, A. R. Gibbs,
    A. D. Grauer, H. Groeller, J. K. Hogan, R. A. Kowalski, S. M. Larson, G.
    J. Leonard, D. Rankin, R. L. Seaman, F. C. Shelly, K. W. Wierzchos.  1.0-m
    prime focus + CCD.
V00 Kitt Peak-Bok.  Observer H. Groeller.  Measurers M. J. Brucker, C. E.
    Woodward, D. Fay, J. B. Fazekas, D. C. Fuls, A. R. Gibbs, H. Groeller, J.
    K. Hogan, R. A. Kowalski, S. M. Larson, C. Lejoly, G. J. Leonard, R. A.
    Mastaler, R. S. McMillan, D. Rankin, R. L. Seaman, A. Serrano, F. C.
    Shelly, K. W. Wierzchos.  2.25-m reflector + 4x4K mosaic CCD.
Orbital elements:
2023 TJ10                                                Earth MOID = 0.0954 AU
Epoch 2023 Sept. 13.0 TT = JDT 2460200.5                Veres                   
M  55.82765              (2000.0)            P               Q                  
n   0.85211039     Peri.  241.75996     -0.11188647     +0.98121261             
a   1.1018914      Node    23.45647     -0.71566695     +0.03016679             
e   0.2838048      Incl.   23.25689     -0.68942167     -0.19055651             
P   1.16           H   24.44          G   0.15           U   9                  
Residuals in seconds of arc
231006 G96  0.4+  0.5-    231013 H01  0.1-  0.3+    231013 I52  0.4-  0.3+
231006 G96  0.4-  0.4+    231013 H01  0.1-  0.0     231013 598  0.4-  0.2+
231013 V00  0.1-  0.0     231013 I52  1.0-  0.7-    231013 598  0.2-  0.2-
231013 V00  0.6+  0.3+    231013 291  0.1-  0.4-    231013 598  0.1+  0.0
231013 V00  0.1+  0.2-    231013 I52  0.1+  0.0     231014 H01  0.0   0.2-
231013 V00  0.2-  0.2+    231013 291  0.1+  0.4-    231014 H01  0.0   0.3-
231013 H01  0.2-  0.0     231013 291  0.3-  0.3-    231014 H01  0.0   0.2-
231013 H01  0.0   0.1+    231013 I52  0.4-  0.7-    231014 H01  0.2+  0.3-
Ephemeris:
2023 TJ10                a,e,i = 1.10, 0.28, 23                  q = 0.7892
Date    TT    R. A. (2000) Decl.     Delta      r    Elong.  Phase     V
2023 09 14    06 12 06.3 -41 18 39   0.2174  1.0061    83.8    83.8    24.1
...
2023 09 29    04 04 10.2 -31 48 02   0.1501  1.0783   116.9    55.9    22.5
...
2023 10 07    02 34 12.0 -17 56 52   0.1379  1.1157   145.1    30.8    21.7
...
2023 10 13    01 34 24.1 -05 32 53   0.1488  1.1428   165.7    12.5    21.3
2023 10 14    01 25 48.7 -03 37 51   0.1523  1.1472   168.2    10.3    21.3
2023 10 15    01 17 39.4 -01 47 34   0.1562  1.1516   170.0     8.7    21.3
...
2023 10 21    00 37 39.0 +07 20 50   0.1877  1.1775   164.2    13.3    21.9
...
2023 10 29    00 04 19.5 +15 03 17   0.2446  1.2102   149.3    24.8    22.9
...
2023 11 13    23 39 27.4 +22 06 53   0.3751  1.2659   130.5    36.5    24.3
M. P. C. Staff               (C) Copyright 2023 MPC           M.P.E.C. 2023-T239
    
    
More information about the Iaude
mailing list